Weather in Zabaykal'skoye

Russia / Khabarovsk Krai     47°36′43″N   134°41′13″E
temp.,
°C
wind,
m/s
gust,
m/s
humid.,
%
clouds,
%
prec.,
mm/h
press.,
hPa
HPBL,
m
24 may, tue
tue2401:00+13sse357759 0.1 100589
04:00+12wsw1383100 0.1 100474
07:00+13sse2990100 0.7 1005344
10:00+19sw5865100 0.7 1005667
13:00+22wsw5856100 0.0 10061419
16:00+20nw587099 0.1 1005588
19:00+14nnw357098 0.1 1007385
22:00+11wnw1185100 0.3 1009119
25 may, wed
wed2501:00+11w2387100 0.1 1010141
04:00+10w1297100 3.3 1010122
07:00+10ne3496100 0.0 1011337
10:00+9ene359499 0.8 1011323
13:00+9ene2591100 0.1 1012330
16:00+11se2286100 0.1 1011223
19:00+14ene2672100 0.0 1010477
22:00+9e119095 0.0 101111
26 may, thu
thu2601:00+7ene228861 0.0 100933
04:00+6e229099 0.0 100924
07:00+9ene238255 0.0 1009126
10:00+16ene236290 0.0 1008559
13:00+21n214943 0.0 10061075
16:00+22nnw2247100 0.0 10041073
19:00+19ne2469100 0.1 100370
22:00+14e2278100 0.1 100321
27 may, fri
fri2701:00+13ese2285100 0.6 100313
04:00+13ese2290100 1.1 100232
07:00+14sse1293100 2.1 100278
10:00+18s1377100 2.9 1002553
13:00+18se3567100 0.1 1002810
16:00+20se5762100 0.1 10011135
19:00+17ese4975100 0.0 1000596
22:00+14e3688100 0.3 1000187
28 may, sat
sat2801:00+14se3785100 0.0 999203
04:00+13ese2289100 0.2 99958
07:00+14e249299 0.1 999150
10:00+14e2391100 0.1 999141
13:00+15ne1285100 0.1 999313
16:00+19ne226873 0.4 9981120
19:00+18n23825 0.8 999302
22:00+13e11945 0.9 100111